Time,TemperatureF,DewpointF,PressureIn,WindDirection,WindDirectionDegrees,WindSpeedMPH,WindSpeedGustMPH,Humidity,HourlyPrecipIn,Conditions,Clouds,dailyrainin,SoftwareType,DateUTC
2013-11-19 00:01:00,54.6,32.0,29.95,West,276,1.0,3.0,42,0.00,,CLR,0.00,VWS V14.01,2013-11-19 05:01:00,
2013-11-19 00:06:00,54.6,32.0,29.95,NW,307,0.0,1.0,42,0.00,,CLR,0.00,VWS V14.01,2013-11-19 05:06:00,
2013-11-19 00:11:00,54.5,32.5,29.95,NW,307,0.0,1.0,43,0.00,,CLR,0.00,VWS V14.01,2013-11-19 05:11:00,
2013-11-19 00:16:00,54.4,32.4,29.95,NW,307,1.0,1.0,43,0.00,,CLR,0.00,VWS V14.01,2013-11-19 05:16:00,
2013-11-19 00:21:00,54.2,32.2,29.95,WNW,289,0.0,2.0,43,0.00,,CLR,0.00,VWS V14.01,2013-11-19 05:21:00,
2013-11-19 00:26:00,54.0,32.0,29.95,West,268,0.0,1.0,43,0.00,,CLR,0.00,VWS V14.01,2013-11-19 05:26:00,
2013-11-19 00:31:00,53.6,32.8,29.96,West,268,0.0,1.0,45,0.00,,CLR,0.00,VWS V14.01,2013-11-19 05:31:00,
2013-11-19 00:41:00,53.4,32.6,29.95,WSW,257,0.0,4.0,45,0.00,,CLR,0.00,VWS V14.01,2013-11-19 05:41:00,
2013-11-19 00:46:00,53.0,31.7,29.95,WSW,243,1.0,3.0,44,0.00,,CLR,0.00,VWS V14.01,2013-11-19 05:46:00,
2013-11-19 00:51:00,53.0,30.5,29.95,WNW,292,0.0,5.0,42,0.00,,CLR,0.00,VWS V14.01,2013-11-19 05:51:00,
2013-11-19 00:56:00,52.8,30.9,29.95,SW,228,0.0,1.0,43,0.00,,CLR,0.00,VWS V14.01,2013-11-19 05:56:00,
2013-11-19 01:01:00,52.4,30.0,29.95,West,266,0.0,3.0,42,0.00,,CLR,0.00,VWS V14.01,2013-11-19 06:01:00,
2013-11-19 01:11:00,52.2,31.0,29.96,West,262,0.0,1.0,44,0.00,,CLR,0.00,VWS V14.01,2013-11-19 06:11:00,
2013-11-19 01:21:00,52.0,29.0,29.96,NW,316,0.0,5.0,41,0.00,,CLR,0.00,VWS V14.01,2013-11-19 06:21:00,
2013-11-19 01:31:00,51.6,29.3,29.96,NW,316,0.0,3.0,42,0.00,,CLR,0.00,VWS V14.01,2013-11-19 06:31:00,
2013-11-19 01:36:00,51.5,28.6,29.96,NW,315,0.0,1.0,41,0.00,,CLR,0.00,VWS V14.01,2013-11-19 06:36:00,
2013-11-19 01:41:00,51.4,29.1,29.96,WSW,248,0.0,1.0,42,0.00,,CLR,0.00,VWS V14.01,2013-11-19 06:41:00,
2013-11-19 01:51:00,51.1,28.2,29.97,SSW,204,0.0,0.0,41,0.00,,CLR,0.00,VWS V14.01,2013-11-19 06:51:00,
2013-11-19 01:56:00,51.0,28.1,29.97,WSW,246,0.0,2.0,41,0.00,,CLR,0.00,VWS V14.01,2013-11-19 06:56:00,
2013-11-19 02:01:00,50.7,29.0,29.97,WSW,246,0.0,1.0,43,0.00,,CLR,0.00,VWS V14.01,2013-11-19 07:01:00,
2013-11-19 02:11:00,49.9,28.3,29.97,SW,223,1.0,1.0,43,0.00,,CLR,0.00,VWS V14.01,2013-11-19 07:11:00,
2013-11-19 02:16:00,50.3,27.5,29.97,West,270,0.0,1.0,41,0.00,,CLR,0.00,VWS V14.01,2013-11-19 07:16:00,
2013-11-19 02:26:00,50.4,27.6,29.97,WNW,288,1.0,1.0,41,0.00,,CLR,0.00,VWS V14.01,2013-11-19 07:26:00,
2013-11-19 02:31:00,50.4,28.2,29.97,WSW,239,0.0,1.0,42,0.00,,CLR,0.00,VWS V14.01,2013-11-19 07:31:00,
2013-11-19 02:41:00,50.1,27.9,29.98,West,275,0.0,1.0,42,0.00,,CLR,0.00,VWS V14.01,2013-11-19 07:41:00,
2013-11-19 02:46:00,49.9,28.3,29.98,West,275,0.0,1.0,43,0.00,,CLR,0.00,VWS V14.01,2013-11-19 07:46:00,
2013-11-19 02:51:00,49.5,27.4,29.98,West,269,0.0,1.0,42,0.00,,CLR,0.00,VWS V14.01,2013-11-19 07:51:00,
2013-11-19 03:01:00,49.2,28.2,29.98,West,269,0.0,0.0,44,0.00,,CLR,0.00,VWS V14.01,2013-11-19 08:01:00,
2013-11-19 03:11:00,48.1,28.3,29.99,West,269,0.0,0.0,46,0.00,,CLR,0.00,VWS V14.01,2013-11-19 08:11:00,
2013-11-19 03:21:00,47.5,27.8,29.99,West,269,0.0,0.0,46,0.00,,CLR,0.00,VWS V14.01,2013-11-19 08:21:00,
2013-11-19 03:26:00,47.1,29.9,29.98,West,269,0.0,0.0,51,0.00,,CLR,0.00,VWS V14.01,2013-11-19 08:26:00,
2013-11-19 03:31:00,46.7,28.6,29.98,West,269,0.0,1.0,49,0.00,,CLR,0.00,VWS V14.01,2013-11-19 08:31:00,
2013-11-19 03:41:00,46.8,31.0,29.99,West,267,0.0,0.0,54,0.00,,CLR,0.00,VWS V14.01,2013-11-19 08:41:00,
2013-11-19 03:51:00,46.3,28.7,29.99,WSW,248,0.0,1.0,50,0.00,,CLR,0.00,VWS V14.01,2013-11-19 08:51:00,
2013-11-19 03:56:00,45.9,32.0,30.00,WSW,248,0.0,1.0,58,0.00,,CLR,0.00,VWS V14.01,2013-11-19 08:56:00,
2013-11-19 04:01:00,45.3,28.7,30.00,West,260,1.0,1.0,52,0.00,,CLR,0.00,VWS V14.01,2013-11-19 09:01:00,
2013-11-19 04:11:00,45.8,28.7,30.00,WSW,249,0.0,0.0,51,0.00,,CLR,0.00,VWS V14.01,2013-11-19 09:11:00,
2013-11-19 04:16:00,45.7,30.5,30.00,ESE,114,0.0,1.0,55,0.00,,CLR,0.00,VWS V14.01,2013-11-19 09:16:00,
2013-11-19 04:21:00,45.5,29.4,30.00,West,262,0.0,1.0,53,0.00,,CLR,0.00,VWS V14.01,2013-11-19 09:21:00,
2013-11-19 04:26:00,46.0,29.4,30.01,West,265,0.0,2.0,52,0.00,,CLR,0.00,VWS V14.01,2013-11-19 09:26:00,
2013-11-19 04:31:00,45.9,30.2,30.01,West,265,0.0,0.0,54,0.00,,CLR,0.00,VWS V14.01,2013-11-19 09:31:00,
2013-11-19 04:36:00,45.7,29.1,30.01,West,265,0.0,1.0,52,0.00,,CLR,0.00,VWS V14.01,2013-11-19 09:36:00,
2013-11-19 04:41:00,45.9,29.3,30.01,WSW,248,0.0,1.0,52,0.00,,CLR,0.00,VWS V14.01,2013-11-19 09:41:00,
2013-11-19 04:46:00,46.2,29.1,30.01,West,262,0.0,1.0,51,0.00,,CLR,0.00,VWS V14.01,2013-11-19 09:46:00,
2013-11-19 04:51:00,46.1,29.5,30.01,West,262,0.0,0.0,52,0.00,,CLR,0.00,VWS V14.01,2013-11-19 09:51:00,
2013-11-19 04:56:00,46.0,28.9,30.02,West,262,0.0,0.0,51,0.00,,CLR,0.00,VWS V14.01,2013-11-19 09:56:00,
2013-11-19 05:01:00,46.6,28.5,30.02,WNW,298,0.0,1.0,49,0.00,,CLR,0.00,VWS V14.01,2013-11-19 10:01:00,
2013-11-19 05:11:00,46.5,28.9,30.02,East,86,0.0,1.0,50,0.00,,CLR,0.00,VWS V14.01,2013-11-19 10:11:00,
2013-11-19 05:16:00,46.2,30.0,30.02,East,86,0.0,0.0,53,0.00,,CLR,0.00,VWS V14.01,2013-11-19 10:16:00,
2013-11-19 05:21:00,45.8,29.7,30.03,East,91,0.0,2.0,53,0.00,,CLR,0.00,VWS V14.01,2013-11-19 10:21:00,
2013-11-19 05:26:00,45.5,29.8,30.03,SE,134,0.0,1.0,54,0.00,,CLR,0.00,VWS V14.01,2013-11-19 10:26:00,
2013-11-19 05:31:00,45.6,29.5,30.03,SE,134,0.0,0.0,53,0.00,,CLR,0.00,VWS V14.01,2013-11-19 10:31:00,
2013-11-19 05:36:00,45.5,29.4,30.04,SE,134,0.0,0.0,53,0.00,,CLR,0.00,VWS V14.01,2013-11-19 10:36:00,
2013-11-19 05:41:00,45.5,29.4,30.04,SE,134,0.0,0.0,53,0.00,,CLR,0.00,VWS V14.01,2013-11-19 10:41:00,
2013-11-19 05:46:00,45.9,28.8,30.04,WNW,300,0.0,1.0,51,0.00,,CLR,0.00,VWS V14.01,2013-11-19 10:46:00,
2013-11-19 05:51:00,46.0,29.4,30.04,WNW,300,0.0,1.0,52,0.00,,CLR,0.00,VWS V14.01,2013-11-19 10:51:00,
2013-11-19 05:56:00,46.0,28.9,30.05,WNW,300,0.0,1.0,51,0.00,,CLR,0.00,VWS V14.01,2013-11-19 10:56:00,
2013-11-19 06:01:00,46.1,29.0,30.04,WNW,302,0.0,1.0,51,0.00,,CLR,0.00,VWS V14.01,2013-11-19 11:01:00,
2013-11-19 06:11:00,46.1,29.0,30.05,WNW,293,0.0,0.0,51,0.00,,CLR,0.00,VWS V14.01,2013-11-19 11:11:00,
2013-11-19 06:16:00,46.1,29.0,30.06,NW,307,0.0,1.0,51,0.00,,CLR,0.00,VWS V14.01,2013-11-19 11:16:00,
2013-11-19 06:21:00,46.1,29.0,30.06,WNW,295,0.0,1.0,51,0.00,,CLR,0.00,VWS V14.01,2013-11-19 11:21:00,
2013-11-19 06:26:00,45.9,29.3,30.06,West,277,0.0,1.0,52,0.00,,CLR,0.00,VWS V14.01,2013-11-19 11:26:00,
2013-11-19 06:31:00,45.7,29.1,30.06,West,278,0.0,1.0,52,0.00,,CLR,0.00,VWS V14.01,2013-11-19 11:31:00,
2013-11-19 06:36:00,45.5,29.4,30.08,North,349,0.0,3.0,53,0.00,,CLR,0.00,VWS V14.01,2013-11-19 11:36:00,
2013-11-19 06:41:00,45.4,29.3,30.08,NNW,328,0.0,1.0,53,0.00,,CLR,0.00,VWS V14.01,2013-11-19 11:41:00,
2013-11-19 06:46:00,45.3,29.2,30.08,NNW,328,0.0,1.0,53,0.00,,CLR,0.00,VWS V14.01,2013-11-19 11:46:00,
2013-11-19 06:51:00,45.1,29.5,30.08,NNW,328,0.0,1.0,54,0.00,,CLR,0.00,VWS V14.01,2013-11-19 11:51:00,
2013-11-19 06:56:00,44.8,29.2,30.08,WNW,290,0.0,1.0,54,0.00,,FEW200,0.00,VWS V14.01,2013-11-19 11:56:00,
2013-11-19 07:01:00,44.6,29.5,30.09,WNW,290,0.0,0.0,55,0.00,,FEW200,0.00,VWS V14.01,2013-11-19 12:01:00,
2013-11-19 07:11:00,44.3,29.6,30.09,West,262,0.0,1.0,56,0.00,,FEW200,0.00,VWS V14.01,2013-11-19 12:11:00,
2013-11-19 07:16:00,44.2,30.0,30.09,West,266,0.0,1.0,57,0.00,,FEW200,0.00,VWS V14.01,2013-11-19 12:16:00,
2013-11-19 07:21:00,44.3,29.6,30.09,West,264,0.0,2.0,56,0.00,,FEW200,0.00,VWS V14.01,2013-11-19 12:21:00,
2013-11-19 07:26:00,44.2,29.1,30.10,West,264,0.0,1.0,55,0.00,,FEW200,0.00,VWS V14.01,2013-11-19 12:26:00,
2013-11-19 07:31:00,44.2,29.1,30.10,SW,236,0.0,1.0,55,0.00,,FEW200,0.00,VWS V14.01,2013-11-19 12:31:00,
2013-11-19 07:36:00,44.3,29.2,30.10,WSW,243,0.0,1.0,55,0.00,,FEW200,0.00,VWS V14.01,2013-11-19 12:36:00,
2013-11-19 07:41:00,44.6,29.9,30.11,WSW,243,0.0,1.0,56,0.00,,FEW200,0.00,VWS V14.01,2013-11-19 12:41:00,
2013-11-19 07:46:00,44.7,29.5,30.10,WSW,252,0.0,3.0,55,0.00,,FEW200,0.00,VWS V14.01,2013-11-19 12:46:00,
2013-11-19 07:56:00,45.2,29.6,30.11,West,274,0.0,1.0,54,0.00,,FEW200,0.00,VWS V14.01,2013-11-19 12:56:00,
2013-11-19 08:01:00,45.3,29.6,30.11,West,274,0.0,1.0,54,0.00,,FEW200,0.00,VWS V14.01,2013-11-19 13:01:00,
2013-11-19 08:11:00,45.9,30.2,30.12,WSW,237,0.0,2.0,54,0.00,,FEW200,0.00,VWS V14.01,2013-11-19 13:11:00,
2013-11-19 08:16:00,46.1,29.9,30.12,WSW,252,0.0,0.0,53,0.00,,FEW200,0.00,VWS V14.01,2013-11-19 13:16:00,
2013-11-19 08:21:00,46.3,30.1,30.12,NW,308,1.0,1.0,53,0.00,,FEW200,0.00,VWS V14.01,2013-11-19 13:21:00,
2013-11-19 08:26:00,46.5,29.4,30.12,WNW,295,0.0,1.0,51,0.00,,FEW200,0.00,VWS V14.01,2013-11-19 13:26:00,
2013-11-19 08:31:00,46.8,30.6,30.12,WSW,245,0.0,2.0,53,0.00,,FEW200,0.00,VWS V14.01,2013-11-19 13:31:00,
2013-11-19 08:36:00,47.0,29.3,30.13,North,8,0.0,1.0,50,0.00,,FEW200,0.00,VWS V14.01,2013-11-19 13:36:00,
2013-11-19 08:41:00,47.2,30.0,30.13,NW,314,1.0,1.0,51,0.00,,FEW200,0.00,VWS V14.01,2013-11-19 13:41:00,
2013-11-19 08:46:00,47.5,29.8,30.13,NW,326,0.0,1.0,50,0.00,,FEW200,0.00,VWS V14.01,2013-11-19 13:46:00,
2013-11-19 08:51:00,47.9,29.7,30.14,NW,307,0.0,1.0,49,0.00,,FEW200,0.00,VWS V14.01,2013-11-19 13:51:00,
2013-11-19 08:56:00,48.3,30.0,30.14,West,266,2.0,3.0,49,0.00,,FEW200,0.00,VWS V14.01,2013-11-19 13:56:00,
2013-11-19 09:01:00,48.5,29.7,30.14,WNW,303,0.0,5.0,48,0.00,,FEW200,0.00,VWS V14.01,2013-11-19 14:01:00,
2013-11-19 09:11:00,49.4,29.5,30.14,NNE,23,1.0,3.0,46,0.00,,FEW200,0.00,VWS V14.01,2013-11-19 14:11:00,
2013-11-19 09:16:00,50.4,30.4,30.14,NNW,347,0.0,2.0,46,0.00,,FEW200,0.00,VWS V14.01,2013-11-19 14:16:00,
2013-11-19 09:21:00,50.8,29.7,30.14,WNW,293,2.0,4.0,44,0.00,,FEW200,0.00,VWS V14.01,2013-11-19 14:21:00,
2013-11-19 09:26:00,51.5,30.3,30.14,North,1,0.0,2.0,44,0.00,,FEW200,0.00,VWS V14.01,2013-11-19 14:26:00,
2013-11-19 09:31:00,52.4,31.1,30.15,North,1,3.0,3.0,44,0.00,,FEW200,0.00,VWS V14.01,2013-11-19 14:31:00,
2013-11-19 09:36:00,52.9,30.5,30.15,NNW,328,1.0,3.0,42,0.00,,FEW200,0.00,VWS V14.01,2013-11-19 14:36:00,
2013-11-19 09:41:00,52.8,29.8,30.15,North,360,2.0,2.0,41,0.00,,FEW200,0.00,VWS V14.01,2013-11-19 14:41:00,
2013-11-19 09:46:00,52.8,29.8,30.15,North,9,1.0,3.0,41,0.00,,FEW200,0.00,VWS V14.01,2013-11-19 14:46:00,
2013-11-19 09:51:00,52.9,29.9,30.15,NE,37,2.0,4.0,41,0.00,,FEW200,0.00,VWS V14.01,2013-11-19 14:51:00,
2013-11-19 09:56:00,52.9,29.9,30.15,West,259,1.0,4.0,41,0.00,,FEW200,0.00,VWS V14.01,2013-11-19 14:56:00,
2013-11-19 10:01:00,53.6,31.7,30.16,North,7,1.0,2.0,43,0.00,,FEW200,0.00,VWS V14.01,2013-11-19 15:01:00,
2013-11-19 10:11:00,54.6,30.2,30.15,WNW,300,1.0,3.0,39,0.00,,FEW200,0.00,VWS V14.01,2013-11-19 15:11:00,
2013-11-19 10:16:00,54.3,30.5,30.15,WNW,290,1.0,3.0,40,0.00,,FEW200,0.00,VWS V14.01,2013-11-19 15:16:00,
2013-11-19 10:21:00,54.7,30.9,30.16,NW,304,0.0,2.0,40,0.00,,FEW200,0.00,VWS V14.01,2013-11-19 15:21:00,
2013-11-19 10:26:00,55.1,30.6,30.16,North,350,1.0,2.0,39,0.00,,FEW200,0.00,VWS V14.01,2013-11-19 15:26:00,
2013-11-19 10:31:00,55.4,30.2,30.16,ENE,77,1.0,2.0,38,0.00,,FEW200,0.00,VWS V14.01,2013-11-19 15:31:00,
2013-11-19 10:36:00,55.4,28.9,30.16,NNE,27,2.0,4.0,36,0.00,,FEW200,0.00,VWS V14.01,2013-11-19 15:36:00,
2013-11-19 10:41:00,54.9,29.1,30.16,NW,305,1.0,4.0,37,0.00,,FEW200,0.00,VWS V14.01,2013-11-19 15:41:00,
2013-11-19 10:46:00,54.7,29.0,30.16,NW,319,0.0,2.0,37,0.00,,FEW200,0.00,VWS V14.01,2013-11-19 15:46:00,
2013-11-19 10:51:00,55.1,28.6,30.15,NW,314,0.0,3.0,36,0.00,,FEW200,0.00,VWS V14.01,2013-11-19 15:51:00,
2013-11-19 10:56:00,55.3,28.8,30.16,NW,307,1.0,4.0,36,0.00,,SCT250,0.00,VWS V14.01,2013-11-19 15:56:00,
2013-11-19 11:01:00,55.3,28.8,30.16,North,8,0.0,3.0,36,0.00,,SCT250,0.00,VWS V14.01,2013-11-19 16:01:00,
2013-11-19 11:11:00,55.2,28.7,30.16,NW,309,1.0,2.0,36,0.00,,SCT250,0.00,VWS V14.01,2013-11-19 16:11:00,
2013-11-19 11:16:00,55.5,29.0,30.15,NW,321,1.0,2.0,36,0.00,,SCT250,0.00,VWS V14.01,2013-11-19 16:16:00,
2013-11-19 11:21:00,56.1,30.2,30.15,NNW,345,1.0,3.0,37,0.00,,SCT250,0.00,VWS V14.01,2013-11-19 16:21:00,
2013-11-19 11:26:00,56.6,30.0,30.15,WNW,301,0.0,3.0,36,0.00,,SCT250,0.00,VWS V14.01,2013-11-19 16:26:00,
2013-11-19 11:31:00,56.3,28.3,30.15,NW,311,1.0,4.0,34,0.00,,SCT250,0.00,VWS V14.01,2013-11-19 16:31:00,
2013-11-19 11:36:00,56.3,28.3,30.15,NW,306,1.0,3.0,34,0.00,,SCT250,0.00,VWS V14.01,2013-11-19 16:36:00,
2013-11-19 11:41:00,56.0,29.4,30.15,NW,322,0.0,2.0,36,0.00,,SCT250,0.00,VWS V14.01,2013-11-19 16:41:00,
2013-11-19 11:46:00,56.3,29.0,30.15,NNE,18,1.0,4.0,35,0.00,,SCT250,0.00,VWS V14.01,2013-11-19 16:46:00,
2013-11-19 11:51:00,56.8,28.8,30.14,North,357,2.0,4.0,34,0.00,,SCT250,0.00,VWS V14.01,2013-11-19 16:51:00,
2013-11-19 11:56:00,56.7,29.4,30.14,NE,41,0.0,3.0,35,0.00,,SCT250,0.00,VWS V14.01,2013-11-19 16:56:00,
2013-11-19 12:01:00,56.8,29.5,30.14,NNW,330,2.0,4.0,35,0.00,,SCT250,0.00,VWS V14.01,2013-11-19 17:01:00,
2013-11-19 12:11:00,56.9,28.8,30.14,WNW,298,2.0,3.0,34,0.00,,SCT250,0.00,VWS V14.01,2013-11-19 17:11:00,
2013-11-19 12:16:00,56.7,28.7,30.14,NNE,13,1.0,3.0,34,0.00,,SCT250,0.00,VWS V14.01,2013-11-19 17:16:00,
2013-11-19 12:21:00,56.9,29.5,30.14,WNW,300,0.0,2.0,35,0.00,,SCT250,0.00,VWS V14.01,2013-11-19 17:21:00,
2013-11-19 12:26:00,57.2,29.8,30.14,NNE,20,0.0,2.0,35,0.00,,SCT250,0.00,VWS V14.01,2013-11-19 17:26:00,
2013-11-19 12:31:00,57.9,30.4,30.14,North,2,0.0,2.0,35,0.00,,SCT250,0.00,VWS V14.01,2013-11-19 17:31:00,
2013-11-19 12:36:00,57.0,28.9,30.14,North,356,0.0,3.0,34,0.00,,SCT250,0.00,VWS V14.01,2013-11-19 17:36:00,
2013-11-19 12:41:00,56.6,30.0,30.14,North,11,0.0,4.0,36,0.00,,SCT250,0.00,VWS V14.01,2013-11-19 17:41:00,
2013-11-19 12:46:00,57.4,30.0,30.13,West,262,0.0,3.0,35,0.00,,SCT250,0.00,VWS V14.01,2013-11-19 17:46:00,
2013-11-19 12:51:00,58.0,29.8,30.13,NNE,15,4.0,4.0,34,0.00,,SCT250,0.00,VWS V14.01,2013-11-19 17:51:00,
2013-11-19 12:56:00,57.7,29.5,30.13,NW,323,0.0,5.0,34,0.00,,SCT250,0.00,VWS V14.01,2013-11-19 17:56:00,
2013-11-19 13:01:00,58.1,29.2,30.13,West,260,1.0,2.0,33,0.00,,SCT250,0.00,VWS V14.01,2013-11-19 18:01:00,
2013-11-19 13:11:00,57.9,29.7,30.13,North,352,0.0,2.0,34,0.00,,SCT250,0.00,VWS V14.01,2013-11-19 18:11:00,
2013-11-19 13:16:00,58.2,30.0,30.12,NNE,16,1.0,3.0,34,0.00,,SCT250,0.00,VWS V14.01,2013-11-19 18:16:00,
2013-11-19 13:21:00,58.0,29.8,30.12,NNW,331,0.0,3.0,34,0.00,,SCT250,0.00,VWS V14.01,2013-11-19 18:21:00,
2013-11-19 13:26:00,58.1,29.9,30.12,WNW,303,1.0,2.0,34,0.00,,SCT250,0.00,VWS V14.01,2013-11-19 18:26:00,
2013-11-19 13:31:00,57.7,29.5,30.12,NNW,335,0.0,2.0,34,0.00,,SCT250,0.00,VWS V14.01,2013-11-19 18:31:00,
2013-11-19 13:36:00,57.2,29.1,30.12,NW,309,0.0,2.0,34,0.00,,SCT250,0.00,VWS V14.01,2013-11-19 18:36:00,
2013-11-19 13:41:00,56.9,28.8,30.13,NW,313,0.0,3.0,34,0.00,,SCT250,0.00,VWS V14.01,2013-11-19 18:41:00,
2013-11-19 13:46:00,57.6,30.2,30.12,ENE,68,0.0,2.0,35,0.00,,SCT250,0.00,VWS V14.01,2013-11-19 18:46:00,
2013-11-19 13:51:00,58.2,29.3,30.12,North,358,1.0,2.0,33,0.00,,SCT250,0.00,VWS V14.01,2013-11-19 18:51:00,
2013-11-19 13:56:00,58.1,29.9,30.12,North,352,1.0,4.0,34,0.00,,SCT250,0.00,VWS V14.01,2013-11-19 18:56:00,
2013-11-19 14:01:00,58.0,29.8,30.12,NW,309,1.0,4.0,34,0.00,,SCT250,0.00,VWS V14.01,2013-11-19 19:01:00,
2013-11-19 14:11:00,57.9,30.4,30.13,NW,309,1.0,5.0,35,0.00,,SCT250,0.00,VWS V14.01,2013-11-19 19:11:00,
2013-11-19 14:16:00,57.9,29.0,30.12,NW,322,0.0,2.0,33,0.00,,SCT250,0.00,VWS V14.01,2013-11-19 19:16:00,
2013-11-19 14:21:00,57.9,29.7,30.13,NW,321,0.0,3.0,34,0.00,,SCT250,0.00,VWS V14.01,2013-11-19 19:21:00,
2013-11-19 14:26:00,58.0,29.8,30.12,NW,311,1.0,2.0,34,0.00,,SCT250,0.00,VWS V14.01,2013-11-19 19:26:00,
2013-11-19 14:31:00,57.8,30.4,30.12,NNE,23,0.0,3.0,35,0.00,,SCT250,0.00,VWS V14.01,2013-11-19 19:31:00,
2013-11-19 14:36:00,57.8,29.6,30.12,ENE,66,0.0,2.0,34,0.00,,SCT250,0.00,VWS V14.01,2013-11-19 19:36:00,
2013-11-19 14:41:00,57.6,29.5,30.12,SW,228,0.0,3.0,34,0.00,,SCT250,0.00,VWS V14.01,2013-11-19 19:41:00,
2013-11-19 14:46:00,57.4,29.3,30.12,East,98,1.0,4.0,34,0.00,,SCT250,0.00,VWS V14.01,2013-11-19 19:46:00,
2013-11-19 14:51:00,57.3,29.9,30.12,NNE,20,0.0,1.0,35,0.00,,SCT250,0.00,VWS V14.01,2013-11-19 19:51:00,
2013-11-19 14:56:00,57.4,30.0,30.12,North,8,1.0,3.0,35,0.00,,SCT250,0.00,VWS V14.01,2013-11-19 19:56:00,
2013-11-19 15:01:00,57.4,29.3,30.12,NE,35,1.0,3.0,34,0.00,,SCT250,0.00,VWS V14.01,2013-11-19 20:01:00,
2013-11-19 15:11:00,57.2,30.5,30.12,North,359,1.0,2.0,36,0.00,,SCT250,0.00,VWS V14.01,2013-11-19 20:11:00,
2013-11-19 15:16:00,56.8,29.5,30.12,NNE,27,2.0,3.0,35,0.00,,SCT250,0.00,VWS V14.01,2013-11-19 20:16:00,
2013-11-19 15:21:00,56.5,29.9,30.12,NE,41,0.0,3.0,36,0.00,,SCT250,0.00,VWS V14.01,2013-11-19 20:21:00,
2013-11-19 15:26:00,56.5,30.6,30.12,North,352,1.0,1.0,37,0.00,,SCT250,0.00,VWS V14.01,2013-11-19 20:26:00,
2013-11-19 15:31:00,56.4,29.8,30.12,North,8,2.0,4.0,36,0.00,,SCT250,0.00,VWS V14.01,2013-11-19 20:31:00,
2013-11-19 15:36:00,56.2,29.6,30.13,NNE,27,1.0,3.0,36,0.00,,SCT250,0.00,VWS V14.01,2013-11-19 20:36:00,
2013-11-19 15:41:00,55.8,29.3,30.13,NNE,23,0.0,5.0,36,0.00,,SCT250,0.00,VWS V14.01,2013-11-19 20:41:00,
2013-11-19 15:46:00,55.7,29.9,30.13,NNE,16,0.0,3.0,37,0.00,,SCT250,0.00,VWS V14.01,2013-11-19 20:46:00,
2013-11-19 15:51:00,55.9,30.0,30.14,NW,319,0.0,1.0,37,0.00,,SCT250,0.00,VWS V14.01,2013-11-19 20:51:00,
2013-11-19 15:56:00,55.8,29.9,30.14,ENE,73,3.0,4.0,37,0.00,,SCT250,0.00,VWS V14.01,2013-11-19 20:56:00,
2013-11-19 16:01:00,55.4,30.2,30.14,NNE,27,0.0,3.0,38,0.00,,SCT250,0.00,VWS V14.01,2013-11-19 21:01:00,
2013-11-19 16:11:00,54.9,29.8,30.15,NE,41,0.0,3.0,38,0.00,,SCT250,0.00,VWS V14.01,2013-11-19 21:11:00,
2013-11-19 16:16:00,54.9,30.4,30.14,North,349,1.0,1.0,39,0.00,,SCT250,0.00,VWS V14.01,2013-11-19 21:16:00,
2013-11-19 16:21:00,54.7,29.6,30.15,NNE,25,0.0,2.0,38,0.00,,SCT250,0.00,VWS V14.01,2013-11-19 21:21:00,
2013-11-19 16:26:00,54.8,29.7,30.15,North,8,0.0,2.0,38,0.00,,SCT250,0.00,VWS V14.01,2013-11-19 21:26:00,
2013-11-19 16:31:00,54.9,30.4,30.15,ENE,60,0.0,1.0,39,0.00,,SCT250,0.00,VWS V14.01,2013-11-19 21:31:00,
2013-11-19 16:36:00,54.4,30.0,30.15,NNE,23,1.0,2.0,39,0.00,,SCT250,0.00,VWS V14.01,2013-11-19 21:36:00,
2013-11-19 16:41:00,54.0,30.2,30.15,NNE,23,0.0,1.0,40,0.00,,SCT250,0.00,VWS V14.01,2013-11-19 21:41:00,
2013-11-19 16:46:00,53.5,30.4,30.15,NNE,23,0.0,1.0,41,0.00,,SCT250,0.00,VWS V14.01,2013-11-19 21:46:00,
2013-11-19 16:51:00,53.0,30.0,30.16,NW,305,0.0,2.0,41,0.00,,SCT250,0.00,VWS V14.01,2013-11-19 21:51:00,
2013-11-19 17:01:00,52.2,31.5,30.16,North,360,0.0,1.0,45,0.00,,BKN250,0.00,VWS V14.01,2013-11-19 22:01:00,
2013-11-19 17:11:00,51.4,30.2,30.17,North,1,0.0,0.0,44,0.00,,BKN250,0.00,VWS V14.01,2013-11-19 22:11:00,
2013-11-19 17:16:00,51.0,31.0,30.17,North,1,0.0,0.0,46,0.00,,BKN250,0.00,VWS V14.01,2013-11-19 22:16:00,
2013-11-19 17:21:00,50.6,30.1,30.17,North,5,0.0,0.0,45,0.00,,BKN250,0.00,VWS V14.01,2013-11-19 22:21:00,
2013-11-19 17:26:00,50.3,30.9,30.18,ENE,64,0.0,1.0,47,0.00,,BKN250,0.00,VWS V14.01,2013-11-19 22:26:00,
2013-11-19 17:31:00,49.9,30.5,30.17,ENE,64,0.0,0.0,47,0.00,,BKN250,0.00,VWS V14.01,2013-11-19 22:31:00,
2013-11-19 17:36:00,49.6,31.7,30.18,ENE,64,0.0,0.0,50,0.00,,BKN250,0.00,VWS V14.01,2013-11-19 22:36:00,
2013-11-19 17:41:00,49.1,32.7,30.18,ENE,64,0.0,0.0,53,0.00,,BKN250,0.00,VWS V14.01,2013-11-19 22:41:00,
2013-11-19 17:46:00,48.6,32.3,30.19,ENE,64,0.0,0.0,53,0.00,,BKN250,0.00,VWS V14.01,2013-11-19 22:46:00,
2013-11-19 17:51:00,48.1,33.2,30.19,ENE,64,0.0,0.0,56,0.00,,BKN250,0.00,VWS V14.01,2013-11-19 22:51:00,
2013-11-19 17:56:00,47.5,33.9,30.19,ENE,64,0.0,0.0,59,0.00,,BKN250,0.00,VWS V14.01,2013-11-19 22:56:00,
2013-11-19 18:01:00,46.7,34.4,30.19,ENE,64,0.0,0.0,62,0.00,,BKN250,0.00,VWS V14.01,2013-11-19 23:01:00,
2013-11-19 18:06:00,46.1,34.2,30.20,ENE,64,0.0,0.0,63,0.00,,BKN250,0.00,VWS V14.01,2013-11-19 23:06:00,
2013-11-19 18:11:00,45.8,35.1,30.20,ENE,64,0.0,0.0,66,0.00,,BKN250,0.00,VWS V14.01,2013-11-19 23:11:00,
2013-11-19 18:16:00,45.3,35.0,30.20,ENE,64,0.0,0.0,67,0.00,,BKN250,0.00,VWS V14.01,2013-11-19 23:16:00,
2013-11-19 18:21:00,45.0,34.7,30.21,ENE,64,0.0,1.0,67,0.00,,BKN250,0.00,VWS V14.01,2013-11-19 23:21:00,
2013-11-19 18:26:00,44.4,34.5,30.21,ENE,64,0.0,0.0,68,0.00,,BKN250,0.00,VWS V14.01,2013-11-19 23:26:00,
2013-11-19 18:31:00,44.0,33.8,30.22,ENE,64,0.0,0.0,67,0.00,,BKN250,0.00,VWS V14.01,2013-11-19 23:31:00,
2013-11-19 18:36:00,43.7,34.2,30.22,ENE,64,0.0,0.0,69,0.00,,BKN250,0.00,VWS V14.01,2013-11-19 23:36:00,
2013-11-19 18:41:00,43.4,33.9,30.22,ENE,64,0.0,0.0,69,0.00,,BKN250,0.00,VWS V14.01,2013-11-19 23:41:00,
2013-11-19 18:46:00,43.2,34.8,30.22,ENE,64,0.0,0.0,72,0.00,,BKN250,0.00,VWS V14.01,2013-11-19 23:46:00,
2013-11-19 18:51:00,42.9,34.2,30.22,East,81,0.0,1.0,71,0.00,,BKN250,0.00,VWS V14.01,2013-11-19 23:51:00,
2013-11-19 18:56:00,42.5,34.1,30.22,East,81,0.0,0.0,72,0.00,,BKN250,0.00,VWS V14.01,2013-11-19 23:56:00,
2013-11-19 19:01:00,42.1,33.7,30.23,East,81,0.0,0.0,72,0.00,,BKN250,0.00,VWS V14.01,2013-11-20 00:01:00,
2013-11-19 19:11:00,41.6,34.3,30.23,East,82,0.0,0.0,75,0.00,,BKN250,0.00,VWS V14.01,2013-11-20 00:11:00,
2013-11-19 19:16:00,41.3,34.0,30.23,East,82,0.0,0.0,75,0.00,,BKN250,0.00,VWS V14.01,2013-11-20 00:16:00,
2013-11-19 19:21:00,40.9,34.3,30.23,East,81,0.0,0.0,77,0.00,,BKN250,0.00,VWS V14.01,2013-11-20 00:21:00,
2013-11-19 19:26:00,40.7,34.1,30.23,East,81,0.0,0.0,77,0.00,,BKN250,0.00,VWS V14.01,2013-11-20 00:26:00,
2013-11-19 19:31:00,40.4,34.4,30.23,East,101,0.0,1.0,79,0.00,,BKN250,0.00,VWS V14.01,2013-11-20 00:31:00,
2013-11-19 19:36:00,40.1,34.4,30.23,East,101,1.0,1.0,80,0.00,,BKN250,0.00,VWS V14.01,2013-11-20 00:36:00,
2013-11-19 19:41:00,39.7,34.0,30.23,East,101,0.0,1.0,80,0.00,,BKN250,0.00,VWS V14.01,2013-11-20 00:41:00,
2013-11-19 19:46:00,39.4,32.8,30.23,East,101,0.0,1.0,77,0.00,,BKN250,0.00,VWS V14.01,2013-11-20 00:46:00,
2013-11-19 19:51:00,39.3,33.3,30.23,East,101,0.0,0.0,79,0.00,,BKN250,0.00,VWS V14.01,2013-11-20 00:51:00,
2013-11-19 19:56:00,39.2,33.6,30.23,East,101,0.0,0.0,80,0.00,,BKN250,0.00,VWS V14.01,2013-11-20 00:56:00,
2013-11-19 20:01:00,39.0,33.4,30.23,East,101,0.0,0.0,80,0.00,,BKN250,0.00,VWS V14.01,2013-11-20 01:01:00,
2013-11-19 20:11:00,38.7,33.7,30.24,East,101,0.0,0.0,82,0.00,,BKN250,0.00,VWS V14.01,2013-11-20 01:11:00,
2013-11-19 20:16:00,38.5,33.5,30.24,East,101,0.0,0.0,82,0.00,,BKN250,0.00,VWS V14.01,2013-11-20 01:16:00,
2013-11-19 20:21:00,38.3,33.6,30.24,East,101,0.0,0.0,83,0.00,,BKN250,0.00,VWS V14.01,2013-11-20 01:21:00,
2013-11-19 20:26:00,38.1,33.4,30.24,East,100,0.0,0.0,83,0.00,,BKN250,0.00,VWS V14.01,2013-11-20 01:26:00,
2013-11-19 20:31:00,37.9,33.5,30.24,East,101,0.0,0.0,84,0.00,,BKN250,0.00,VWS V14.01,2013-11-20 01:31:00,
2013-11-19 20:36:00,37.7,33.0,30.25,East,101,0.0,0.0,83,0.00,,BKN250,0.00,VWS V14.01,2013-11-20 01:36:00,
2013-11-19 20:41:00,37.6,33.2,30.25,East,100,0.0,0.0,84,0.00,,BKN250,0.00,VWS V14.01,2013-11-20 01:41:00,
2013-11-19 20:46:00,37.5,33.4,30.25,East,101,0.0,0.0,85,0.00,,BKN250,0.00,VWS V14.01,2013-11-20 01:46:00,
2013-11-19 20:51:00,37.4,33.6,30.26,East,101,0.0,0.0,86,0.00,,BKN250,0.00,VWS V14.01,2013-11-20 01:51:00,
2013-11-19 20:56:00,37.4,33.6,30.26,East,100,0.0,0.0,86,0.00,,SCT250,0.00,VWS V14.01,2013-11-20 01:56:00,
2013-11-19 21:01:00,37.7,33.3,30.26,East,100,0.0,1.0,84,0.00,,SCT250,0.00,VWS V14.01,2013-11-20 02:01:00,
2013-11-19 21:11:00,38.7,32.4,30.26,East,91,0.0,1.0,78,0.00,,SCT250,0.00,VWS V14.01,2013-11-20 02:11:00,
2013-11-19 21:16:00,39.8,32.2,30.25,East,86,0.0,1.0,74,0.00,,SCT250,0.00,VWS V14.01,2013-11-20 02:16:00,
2013-11-19 21:21:00,40.8,32.1,30.26,North,10,0.0,1.0,71,0.00,,SCT250,0.00,VWS V14.01,2013-11-20 02:21:00,
2013-11-19 21:26:00,41.3,32.3,30.26,ENE,74,0.0,1.0,70,0.00,,SCT250,0.00,VWS V14.01,2013-11-20 02:26:00,
2013-11-19 21:31:00,41.8,32.0,30.27,NE,46,0.0,1.0,68,0.00,,SCT250,0.00,VWS V14.01,2013-11-20 02:31:00,
2013-11-19 21:36:00,41.9,32.5,30.27,NE,46,0.0,1.0,69,0.00,,SCT250,0.00,VWS V14.01,2013-11-20 02:36:00,
2013-11-19 21:46:00,42.0,32.2,30.28,NE,43,0.0,1.0,68,0.00,,SCT250,0.00,VWS V14.01,2013-11-20 02:46:00,
2013-11-19 21:51:00,42.2,32.0,30.28,ENE,63,0.0,1.0,67,0.00,,SCT250,0.00,VWS V14.01,2013-11-20 02:51:00,
2013-11-19 21:56:00,42.3,31.8,30.28,ENE,62,0.0,1.0,66,0.00,,BKN250,0.00,VWS V14.01,2013-11-20 02:56:00,
2013-11-19 22:01:00,42.4,31.9,30.28,NNE,31,0.0,1.0,66,0.00,,BKN250,0.00,VWS V14.01,2013-11-20 03:01:00,
2013-11-19 22:06:00,42.5,32.0,30.29,NE,39,0.0,1.0,66,0.00,,BKN250,0.00,VWS V14.01,2013-11-20 03:06:00,
2013-11-19 22:16:00,42.7,31.4,30.29,North,11,0.0,4.0,64,0.00,,BKN250,0.00,VWS V14.01,2013-11-20 03:16:00,
2013-11-19 22:21:00,42.7,31.4,30.29,NE,34,1.0,1.0,64,0.00,,BKN250,0.00,VWS V14.01,2013-11-20 03:21:00,
2013-11-19 22:26:00,42.7,31.4,30.29,NNE,14,0.0,1.0,64,0.00,,BKN250,0.00,VWS V14.01,2013-11-20 03:26:00,
2013-11-19 22:31:00,42.7,31.4,30.29,East,79,1.0,3.0,64,0.00,,BKN250,0.00,VWS V14.01,2013-11-20 03:31:00,
2013-11-19 22:36:00,42.7,31.4,30.29,North,8,0.0,2.0,64,0.00,,BKN250,0.00,VWS V14.01,2013-11-20 03:36:00,
2013-11-19 22:41:00,42.6,31.7,30.29,ENE,67,0.0,2.0,65,0.00,,BKN250,0.00,VWS V14.01,2013-11-20 03:41:00,
2013-11-19 22:46:00,42.6,31.3,30.30,ENE,78,0.0,1.0,64,0.00,,BKN250,0.00,VWS V14.01,2013-11-20 03:46:00,
2013-11-19 22:51:00,42.5,30.8,30.30,ENE,71,0.0,2.0,63,0.00,,BKN250,0.00,VWS V14.01,2013-11-20 03:51:00,
2013-11-19 22:56:00,42.6,30.9,30.30,ENE,71,0.0,0.0,63,0.00,,BKN220,0.00,VWS V14.01,2013-11-20 03:56:00,
2013-11-19 23:01:00,42.5,30.8,30.31,ENE,65,0.0,0.0,63,0.00,,BKN220,0.00,VWS V14.01,2013-11-20 04:01:00,
2013-11-19 23:11:00,42.7,31.0,30.31,NE,53,0.0,3.0,63,0.00,,BKN220,0.00,VWS V14.01,2013-11-20 04:11:00,
2013-11-19 23:16:00,42.7,31.0,30.31,North,10,1.0,2.0,63,0.00,,BKN220,0.00,VWS V14.01,2013-11-20 04:16:00,
2013-11-19 23:21:00,42.7,31.0,30.32,NNE,22,0.0,1.0,63,0.00,,BKN220,0.00,VWS V14.01,2013-11-20 04:21:00,
2013-11-19 23:26:00,42.6,30.9,30.32,East,81,0.0,4.0,63,0.00,,BKN220,0.00,VWS V14.01,2013-11-20 04:26:00,
2013-11-19 23:31:00,42.6,30.5,30.31,NE,44,0.0,3.0,62,0.00,,BKN220,0.00,VWS V14.01,2013-11-20 04:31:00,
2013-11-19 23:36:00,42.6,30.9,30.32,ENE,58,0.0,5.0,63,0.00,,BKN220,0.00,VWS V14.01,2013-11-20 04:36:00,
2013-11-19 23:41:00,42.5,30.8,30.32,ENE,66,0.0,3.0,63,0.00,,BKN220,0.00,VWS V14.01,2013-11-20 04:41:00,
2013-11-19 23:46:00,42.4,30.7,30.32,NE,53,1.0,2.0,63,0.00,,BKN220,0.00,VWS V14.01,2013-11-20 04:46:00,
2013-11-19 23:51:00,42.3,30.6,30.32,NNE,24,0.0,1.0,63,0.00,,BKN220,0.00,VWS V14.01,2013-11-20 04:51:00,
2013-11-19 23:56:00,42.3,30.6,30.32,ENE,60,0.0,2.0,63,0.00,,BKN190,0.00,VWS V14.01,2013-11-20 04:56:00,